Location: Unspecified
(47.9110°N, 14.3980°E)
Time: 05:35:17
(UTC+00:00)

Cosmos 1500 - Pass Details

Date: 06 August 2020
Orbit: 500 x 518 km, 82.5° (Epoch: 23 September)

Event Time Altitude Azimuth Distance (km) Brightness Sun altitude
Exits shadow 21:24:22 40° 65° (ENE) 747 3.9 -21.7°
Drops below altitude 10° 21:27:21 10° 21° (NNE) 1,718 6.4 -21.9°
Sets 21:29:32 0° 15° (NNE) 2,608 7.5 -22.0°
